This demonstration page uses our WeatherBlox Daily Observations layout. Learn more.

Left ArrowRight Arrow

41.86663, -103.66717

Hourly Observations for February 11, 2019

Temp ( °F °C ) Dew Point ( °F °C ) Humidity (%) Winds ( mph kmh ) Pressure ( in mb ) Visibility ( mi km ) Precip ( " mm )
12:53 am 00:53 Cloudy 18 -7.8 17 -8.3 96 96 ESE 13 20 29.87 1011 9 14 N/A
1:53 am 01:53 Cloudy 20 -6.7 18 -7.8 92 92 E 9 15 29.83 1010 9 14 N/A
2:53 am 02:53 Cloudy 20 -6.7 19 -7.2 96 96 ESE 9 15 29.80 1009 9 14 N/A
3:53 am 03:53 Cloudy 20 -6.7 19 -7.2 96 96 SE 12 19 29.78 1008 7 11 N/A
4:53 am 04:53 Cloudy 21 -6.1 21 -6.1 100 100 ESE 14 22 29.75 1008 7 11 N/A
5:53 am 05:53 Cloudy 22 -5.6 21 -6.1 96 96 ESE 18 30 29.73 1007 7 11 N/A
6:53 am 06:53 Cloudy 22 -5.6 22 -5.6 100 100 SE 13 20 29.75 1007 7 11 N/A
7:53 am 07:53 Cloudy 23 -5 22 -5.6 96 96 S 6 9 29.78 1009 7 11 N/A
8:53 am 08:53 Cloudy 24 -4.4 22 -5.6 91 91 S 9 15 29.80 1009 9 14 N/A
9:23 am 09:23 Mostly Cloudy 27 -3 21 -6 80 80 SSE 7 11 29.83 1010 10 16 N/A
9:32 am 09:32 Partly Cloudy 26 -3.3 22 -5.6 84 84 SSE 8 13 29.83 1010 10 16 N/A
9:53 am 09:53 Sunny 27 -2.8 23 -5 85 85 SE 6 9 29.80 1009 10 16 N/A
10:53 am 10:53 Sunny 24 -4.4 20 -6.7 84 84 WNW 18 30 29.86 1011 10 16 N/A
11:53 am 11:53 Sunny 32 undefined 23 -5 69 69 WNW 22 35 29.84 1011 10 16 N/A
12:53 pm 12:53 Sunny 33 0.6 23 -5 66 66 WNW 15 24 29.85 1011 10 16 N/A
1:53 pm 13:53 Sunny 34 1.1 21 -6.1 59 59 NW 17 28 29.87 1011 10 16 N/A
2:53 pm 14:53 Sunny 34 1.1 20 -6.7 56 56 NW 16 26 29.89 1012 10 16 N/A
3:53 pm 15:53 Sunny 33 0.6 20 -6.7 58 58 WNW 12 19 29.91 1013 10 16 N/A
4:53 pm 16:53 Sunny 30 -1.1 14 -10 51 51 W 17 28 29.94 1014 10 16 N/A
5:53 pm 17:53 Clear 26 -3.3 14 -10 60 60 WNW 15 24 29.97 1015 10 16 N/A
6:53 pm 18:53 Clear 24 -4.4 13 -10.6 62 62 W 15 24 30.01 1016 10 16 N/A
7:53 pm 19:53 Clear 24 -4.4 12 -11.1 60 60 W 20 31 30.01 1016 10 16 N/A
8:53 pm 20:53 Clear 22 -5.6 11 -11.7 63 63 W 10 17 30.04 1017 10 16 N/A
9:53 pm 21:53 Clear 17 -8.3 9 -12.8 70 70 NNW 5 7 30.06 1018 10 16 N/A
10:53 pm 22:53 Clear 16 -8.9 9 -12.8 74 74 NNW 8 13 30.08 1019 10 16 N/A
11:53 pm 23:53 Clear 17 -8.3 10 -12.2 74 74 NW 7 11 30.05 1018 10 16 N/A

Powered by AerisWeather